Find Starlink 6281

NORAD ID: 56410 Int'l Des: 2023-061 Owner: SPXS Country: US Constellation: starlink operational
LEOCIRCULAR

当前视图

正在加载3D地球...

关于 Starlink 6281

正在加载描述...

即将过境

Passes for default location (London). Set your location on the main map for personalized predictions.

高度历史

Loading altitude history...

两行轨道根数

1 56410U 23061AN 26150.97439756 .00000051 00000-0 11363-4 0 9996
2 56410 43.0008 81.9359 0000735 265.0665 95.0102 15.27572644169469
Epoch: May 30, 2026 • Age: 11 hours

当前状态

高度 482.3 km
速度 7.63 km/s
星下点 12.71°N, 47.54°E
发射日期 May 4, 2023
运行时间 3 years
类型 internet

技术详情

分类 Payload
质量 305.00 kg
干质量 290.00 kg
总质量 305.00 kg
长度 0.20 m
直径 2.80 m
跨度 9.00 m
形状 Box + pan
制造商 SPXS
平台类型 Starlink
阶段状态 In Orbit
所有者/国家 SPXS/US

Most Searched